{"data":{"norad_id":49437,"intl_designator":"2021-104AF","name":"STARLINK-3130","alt_names":[],"object_type":"PAYLOAD","status":"ACTIVE","operator":null,"country":"US","launch_date":"2021-11-13","launch_site_code":"AFETR","launch_vehicle":null,"mission":null,"orbit_class":"UNKNOWN","rcs_meters":null,"size_class":null,"mass_kg":null,"dimensions":null,"purposes":["comms"],"wikipedia_slug":null,"has_3d_model":false,"image_url":null,"decayed_at":null,"tle_current":{"epoch":"2026-09-20T01:50:35.155392Z","epoch_age_seconds":77875,"freshness":"FRESH","line1":"1 49437U 21104AF  26263.07679578  .00001278  00000+0  48955-4 0  9995","line2":"2 49437  53.1627  40.0463 0001045  87.0278 273.0845 15.34394081268487","mean_motion":15.34394081,"eccentricity":0.0001045,"inclination_deg":53.1627,"raan_deg":40.0463,"arg_perigee_deg":87.0278,"mean_anomaly_deg":273.0845,"bstar":4.8955e-5,"rev_number":26848,"period_min":93.848120103638,"perigee_km":462.00596313551,"apogee_km":463.43570242256,"semimajor_km":6840.857832779,"source":"CELESTRAK","updated_at":"2026-09-20T09:00:39.260513Z"}}}